{"data":{"norad_id":63067,"epoch":"2026-09-21T07:14:42.079488Z","epoch_age_seconds":93002,"freshness":"FRESH","line1":"1 63067U 25035R   26264.30187592  .00005047  00000+0  19275-3 0  9994","line2":"2 63067  42.9982 122.5729 0003931 263.2445  96.7959 15.27587281 89646","mean_motion":15.27587281,"eccentricity":0.0003931,"inclination_deg":42.9982,"raan_deg":122.5729,"arg_perigee_deg":263.2445,"mean_anomaly_deg":96.7959,"bstar":0.00019275,"rev_number":8964,"period_min":94.266299406299,"perigee_km":480.33017050888,"apogee_km":485.72441787697,"semimajor_km":6861.1642941929,"source":"CELESTRAK","updated_at":"2026-09-22T09:00:49.753857Z"}}